Riverside, CA

7:13 AM PST on February 19, 2017 (GMT -0800)
Riverside Municipal

Weather History for KRAL - August, 2013

Change the Weather History Date:

Saturday, August 10, 2013

  Actual Average Record
Temperature  
Mean Temperature 72 °F 80 °F  
Max Temperature 85 °F 95 °F 108 °F (1915)
Min Temperature 58 °F 65 °F 48 °F (1949)
Degree Days  
Heating Degree Days 0 0  
Month to date heating degree days 0 0  
Since 1 June heating degree days 0 2  
Since 1 July heating degree days 0 0  
Cooling Degree Days 7 15  
Month to date cooling degree days 92 150  
Year to date cooling degree days 1109 962  
Since 1 June cooling degree days 823 785  
Growing Degree Days 20 (Base 50)    
Moisture  
Dew Point 54 °F    
Average Humidity 60    
Maximum Humidity 87    
Minimum Humidity 32    
Precipitation  
Precipitation 0.00 in 0.01 in 0.11 in (1942)
Month to date precipitation 0.00 0.07  
Year to date precipitation 2.31 9.33  
Since 1 July precipitation 0.10  
Snow  
Snow 0.00 in - - ()
Month to date snowfall 0.0  
Year to date snowfall 0.0  
Snow Depth 0.00 in    
Sea Level Pressure  
Sea Level Pressure 29.96 in    
Wind  
Wind Speed 4 mph (West)    
Max Wind Speed 15 mph    
Max Gust Speed 21 mph    
Visibility 7 miles    
Events      
T = Trace of Precipitation, MM = Missing Value Source: NWS Daily Summary

Daily Weather History Graph

Daily Weather History Graph

Search for Another Location

Airport or City:

Trip Planner

Search our weather history database for the weather conditions in past years. The results will help you decide how hot, cold, wet, or windy it might be!

Date:

Astronomy

Aug. 10, 2013 Rise Set
Actual Time 6:08 AM PDT 7:41 PM PDT
Civil Twilight 5:41 AM PDT 8:08 PM PDT
Nautical Twilight 5:09 AM PDT 8:40 PM PDT
Astronomical Twilight 4:35 AM PDT 9:13 PM PDT
Moon 9:45 AM PDT (8/10) 9:40 PM PDT (8/10)
Length of Visible Light 14h 26m
Length of Day
13h 33m
Waxing Crescent, 15% of the Moon is Illuminated
Aug 10
Waxing Crescent
Aug 14
First Quarter
Aug 20
Full
Aug 28
Last Quarter
Sep 5
New

Hourly Weather History & Observations

Time (PDT) Temp. Heat Index Dew Point Humidity Pressure Visibility Wind Dir Wind Speed Gust Speed Precip Events Conditions
12:53 AM 63.0 °F - 55.9 °F 78% 29.93 in 10.0 mi Calm Calm - N/A   Clear
1:53 AM 63.0 °F - 55.0 °F 75% 29.93 in 10.0 mi Calm Calm - N/A   Clear
2:53 AM 62.1 °F - 55.9 °F 80% 29.93 in 10.0 mi Calm Calm - N/A   Clear
3:53 AM 59.0 °F - 55.0 °F 87% 29.94 in 9.0 mi West 3.5 mph - N/A   Clear
4:53 AM 59.0 °F - 55.0 °F 87% 29.94 in 7.0 mi Calm Calm - N/A   Clear
5:03 AM 59.0 °F - 55.4 °F 88% 29.99 in 7.0 mi West 4.6 mph - N/A   Scattered Clouds
5:11 AM 57.2 °F - 55.4 °F 94% 29.99 in 7.0 mi West 3.5 mph - N/A   Mostly Cloudy
5:40 AM 59.0 °F - 55.4 °F 88% 30.00 in 4.0 mi WSW 3.5 mph - N/A   Overcast
5:53 AM 57.9 °F - 55.9 °F 93% 29.96 in 3.0 mi Calm Calm - N/A   Overcast
6:38 AM 59.0 °F - 55.4 °F 88% 30.01 in 2.5 mi Calm Calm - N/A   Overcast
6:53 AM 59.0 °F - 55.9 °F 90% 29.97 in 2.0 mi Calm Calm - N/A   Overcast
7:53 AM 59.0 °F - 55.9 °F 90% 29.99 in 2.5 mi Calm Calm - N/A   Overcast
8:00 AM 59.0 °F - 55.4 °F 88% 30.03 in 3.0 mi Calm Calm - N/A   Overcast
8:53 AM 60.1 °F - 55.9 °F 86% 30.00 in 3.0 mi Variable 3.5 mph - N/A   Overcast
9:53 AM 62.1 °F - 55.9 °F 80% 30.00 in 4.0 mi Calm Calm - N/A   Haze
10:19 AM 64.4 °F - 57.2 °F 77% 30.04 in 4.0 mi WSW 3.5 mph - N/A   Haze
10:53 AM 66.9 °F - 55.9 °F 68% 30.00 in 5.0 mi Calm Calm - N/A   Haze
11:53 AM 73.9 °F - 55.9 °F 53% 29.98 in 7.0 mi West 5.8 mph - N/A   Clear
12:53 PM 80.1 °F 79.9 °F 53.1 °F 39% 29.95 in 10.0 mi Variable 5.8 mph - N/A   Clear
1:53 PM 82.9 °F - 52.0 °F 34% 29.93 in 10.0 mi Variable 6.9 mph - N/A   Clear
2:53 PM 84.0 °F - 52.0 °F 33% 29.92 in 10.0 mi West 11.5 mph 17.3 mph N/A   Clear
3:53 PM 82.9 °F - 50.0 °F 32% 29.92 in 10.0 mi WNW 9.2 mph 16.1 mph N/A   Clear
4:53 PM 81.0 °F - 50.0 °F 34% 29.91 in 10.0 mi West 9.2 mph 18.4 mph N/A   Clear
5:53 PM 79.0 °F - 50.0 °F 36% 29.91 in 10.0 mi West 11.5 mph 18.4 mph N/A   Clear
6:53 PM 77.0 °F - 51.1 °F 40% 29.91 in 10.0 mi West 9.2 mph - N/A   Clear
7:53 PM 73.0 °F - 48.9 °F 42% 29.92 in 10.0 mi West 6.9 mph - N/A   Clear
8:53 PM 69.1 °F - 53.1 °F 57% 29.94 in 10.0 mi West 5.8 mph - N/A   Clear
9:53 PM 68.0 °F - 54.0 °F 61% 29.95 in 10.0 mi West 3.5 mph - N/A   Clear
10:53 PM 66.9 °F - 55.0 °F 66% 29.95 in 10.0 mi West 4.6 mph - N/A   Clear
11:53 PM 64.9 °F - 55.0 °F 70% 29.95 in 10.0 mi West 4.6 mph - N/A   Clear